Bay City, TX

6:28 PM CDT on April 23, 2018 (GMT -0500)
Bay City

Weather History for KBYY - January, 2013

Change the Weather History Date:

Wednesday, January 16, 2013

  Actual Average (KLBX) Record (KLBX)
Temperature  
Mean Temperature 42 °F -  
Max Temperature 53 °F 61 °F 81 °F (2017)
Min Temperature 32 °F 45 °F 27 °F (2018)
Degree Days  
Heating Degree Days 22    
Moisture  
Dew Point 29 °F    
Average Humidity 63    
Maximum Humidity 93    
Minimum Humidity 30    
Precipitation  
Precipitation 0.00 in - - ()
Sea Level Pressure  
Sea Level Pressure 30.25 in    
Wind  
Wind Speed 12 mph (NW)    
Max Wind Speed 18 mph    
Max Gust Speed 25 mph    
Visibility 10 miles    
Events      
Averages and records for this station are not official NWS values.
T = Trace of Precipitation, MM = Missing Value Source: NWS Daily Summary

Daily Weather History Graph

Daily Weather History Graph

Search for Another Location

Airport or City:

Astronomy

Jan. 16, 2013 Rise Set
Actual Time 7:17 AM CST 5:49 PM CST
Civil Twilight 6:52 AM CST 6:14 PM CST
Nautical Twilight 6:23 AM CST 6:43 PM CST
Astronomical Twilight 5:54 AM CST 7:12 PM CST
Moon 10:24 AM CST (1/16) 11:09 PM CST (1/16)
Length of Visible Light 11h 22m
Length of Day
10h 31m
Waxing Crescent, 28% of the Moon is Illuminated
Jan 16
Waxing Crescent
Jan 18
First Quarter
Jan 26
Full
Feb 3
Last Quarter
Feb 10
New

Hourly Weather History & Observations

Time (CST) Temp. Windchill Dew Point Humidity Pressure Visibility Wind Dir Wind Speed Gust Speed Precip Events Conditions
12:15 AM 39.2 °F 30.8 °F 35.8 °F 88% 30.15 in 10.0 mi NNW 15.0 mph 25.3 mph N/A   Overcast
12:35 AM 39.4 °F 31.1 °F 35.8 °F 87% 30.17 in 10.0 mi NNW 15.0 mph 20.7 mph N/A   Overcast
12:55 AM 39.4 °F 32.7 °F 35.8 °F 87% 30.18 in 10.0 mi NNW 10.4 mph 18.4 mph N/A   Overcast
1:15 AM 39.6 °F 32.1 °F 35.8 °F 86% 30.18 in 10.0 mi NNW 12.7 mph 19.6 mph N/A   Overcast
1:35 AM 39.6 °F 32.1 °F 36.3 °F 88% 30.19 in 10.0 mi NNW 12.7 mph 17.3 mph N/A   Overcast
1:55 AM 39.4 °F 33.2 °F 36.9 °F 91% 30.19 in 10.0 mi NNW 9.2 mph 18.4 mph N/A   Overcast
2:15 AM 37.4 °F 27.8 °F 35.6 °F 93% 30.19 in 10.0 mi NNW 17.3 mph 21.9 mph N/A   Overcast
2:35 AM 39.4 °F 31.8 °F 36.5 °F 89% 30.20 in 10.0 mi NNW 12.7 mph 17.3 mph N/A   Overcast
2:55 AM 39.6 °F 32.1 °F 36.5 °F 89% 30.20 in 10.0 mi NNW 12.7 mph 18.4 mph N/A   Overcast
3:15 AM 39.7 °F 32.7 °F 36.0 °F 86% 30.21 in 10.0 mi NNW 11.5 mph 20.7 mph N/A   Overcast
3:35 AM 39.9 °F 32.1 °F 35.4 °F 84% 30.21 in 10.0 mi NNW 13.8 mph 17.3 mph N/A   Overcast
3:55 AM 40.1 °F 33.2 °F 34.7 °F 81% 30.21 in 10.0 mi NNW 11.5 mph - N/A   Overcast
4:15 AM 40.1 °F 33.2 °F 34.2 °F 79% 30.21 in 10.0 mi NNW 11.5 mph 17.3 mph N/A   Overcast
4:35 AM 40.1 °F 33.6 °F 34.2 °F 79% 30.21 in 10.0 mi NW 10.4 mph - N/A   Overcast
4:55 AM 40.1 °F 33.6 °F 33.8 °F 78% 30.21 in 10.0 mi NNW 10.4 mph 19.6 mph N/A   Overcast
5:15 AM 39.2 °F 31.6 °F 33.8 °F 81% 30.22 in 10.0 mi NW 12.7 mph 18.4 mph N/A   Overcast
5:35 AM 40.3 °F 33.4 °F 33.4 °F 77% 30.23 in 10.0 mi NW 11.5 mph 19.6 mph N/A   Overcast
5:55 AM 40.3 °F 33.4 °F 33.6 °F 77% 30.23 in 10.0 mi NW 11.5 mph - N/A   Overcast
6:15 AM 40.3 °F 33.0 °F 34.0 °F 78% 30.24 in 10.0 mi NW 12.7 mph 19.6 mph N/A   Overcast
6:35 AM 40.3 °F 33.9 °F 34.0 °F 78% 30.25 in 10.0 mi NW 10.4 mph - N/A   Overcast
6:55 AM 40.1 °F 33.6 °F 33.3 °F 77% 30.25 in 10.0 mi NW 10.4 mph 19.6 mph N/A   Overcast
7:15 AM 40.1 °F 34.7 °F 32.5 °F 74% 30.27 in 10.0 mi NW 8.1 mph 20.7 mph N/A   Overcast
7:35 AM 39.0 °F 32.8 °F 32.4 °F 77% 30.28 in 10.0 mi NW 9.2 mph - N/A   Scattered Clouds
7:55 AM 37.9 °F 30.0 °F 32.2 °F 80% 30.29 in 10.0 mi NW 12.7 mph - N/A   Clear
8:15 AM 38.1 °F 30.2 °F 32.0 °F 79% 30.30 in 10.0 mi NW 12.7 mph - N/A   Clear
8:35 AM 39.6 °F 31.7 °F 31.8 °F 74% 30.30 in 10.0 mi NW 13.8 mph 18.4 mph N/A   Clear
8:55 AM 40.6 °F 32.0 °F 30.9 °F 68% 30.31 in 10.0 mi NW 17.3 mph 21.9 mph N/A   Clear
9:15 AM 41.5 °F 32.9 °F 29.7 °F 63% 30.31 in 10.0 mi NW 18.4 mph 23.0 mph N/A   Clear
9:35 AM 42.3 °F 35.1 °F 29.1 °F 60% 30.32 in 10.0 mi NW 13.8 mph - N/A   Clear
9:55 AM 43.7 °F 36.3 °F 28.6 °F 55% 30.32 in 10.0 mi NNW 16.1 mph 20.7 mph N/A   Clear
10:15 AM 45.0 °F 37.6 °F 27.7 °F 51% 30.32 in 10.0 mi NW 17.3 mph 21.9 mph N/A   Clear
10:35 AM 46.4 °F 40.4 °F 25.7 °F 44% 30.32 in 10.0 mi NW 13.8 mph 20.7 mph N/A   Clear
10:55 AM 47.7 °F - 24.3 °F 40% 30.31 in 10.0 mi NW 17.3 mph 23.0 mph N/A   Clear
11:15 AM 48.7 °F - 21.9 °F 35% 30.29 in 10.0 mi NW 16.1 mph 23.0 mph N/A   Clear
11:35 AM 50.2 °F - 21.7 °F 33% 30.29 in 10.0 mi NW 16.1 mph - N/A   Clear
11:55 AM 51.1 °F - 21.4 °F 31% 30.28 in 10.0 mi NW 15.0 mph - N/A   Clear
12:15 PM 51.6 °F - 21.9 °F 31% 30.27 in 10.0 mi NNW 12.7 mph 24.2 mph N/A   Clear
12:35 PM 51.8 °F - 23.0 °F 33% 30.26 in 10.0 mi NW 13.8 mph 19.6 mph N/A   Clear
12:55 PM 52.3 °F - 23.4 °F 32% 30.25 in 10.0 mi NW 16.1 mph - N/A   Clear
1:15 PM 52.9 °F - 25.5 °F 35% 30.24 in 10.0 mi WNW 15.0 mph 20.7 mph N/A   Clear
1:35 PM 52.3 °F - 25.3 °F 35% 30.24 in 10.0 mi WNW 12.7 mph 24.2 mph N/A   Clear
1:55 PM 52.5 °F - 24.3 °F 33% 30.23 in 10.0 mi WNW 18.4 mph 23.0 mph N/A   Clear
2:15 PM 52.5 °F - 23.7 °F 33% 30.21 in 10.0 mi NW 17.3 mph 24.2 mph N/A   Clear
2:35 PM 53.4 °F - 24.3 °F 32% 30.21 in 10.0 mi NW 17.3 mph 23.0 mph N/A   Clear
2:55 PM 53.4 °F - 23.7 °F 32% 30.21 in 10.0 mi NW 16.1 mph 23.0 mph N/A   Clear
3:15 PM 53.4 °F - 23.5 °F 31% 30.21 in 10.0 mi WNW 18.4 mph 24.2 mph N/A   Clear
3:35 PM 53.1 °F - 22.5 °F 30% 30.21 in 10.0 mi WNW 17.3 mph 23.0 mph N/A   Clear
3:55 PM 52.9 °F - 23.2 °F 31% 30.22 in 10.0 mi NW 16.1 mph 23.0 mph N/A   Clear
4:15 PM 52.7 °F - 23.5 °F 32% 30.22 in 10.0 mi NW 12.7 mph 21.9 mph N/A   Clear
4:35 PM 52.5 °F - 23.9 °F 33% 30.23 in 10.0 mi NW 13.8 mph 21.9 mph N/A   Clear
4:55 PM 52.0 °F - 24.3 °F 34% 30.22 in 10.0 mi NW 10.4 mph 18.4 mph N/A   Clear
5:15 PM 51.3 °F - 24.8 °F 36% 30.22 in 10.0 mi NW 6.9 mph - N/A   Clear
5:35 PM 50.2 °F - 25.9 °F 39% 30.23 in 10.0 mi NW 5.8 mph - N/A   Clear
5:55 PM 47.7 °F - 27.0 °F 45% 30.24 in 10.0 mi NNW 3.5 mph - N/A   Clear
6:15 PM 45.9 °F - 27.1 °F 48% 30.25 in 10.0 mi Calm Calm - N/A   Clear
6:35 PM 44.8 °F - 27.1 °F 50% 30.26 in 10.0 mi Calm Calm - N/A   Clear
6:55 PM 42.4 °F - 27.9 °F 56% 30.27 in 10.0 mi Calm Calm - N/A   Clear
7:15 PM 41.2 °F - 28.4 °F 60% 30.27 in 10.0 mi Calm Calm - N/A   Clear
7:35 PM 39.7 °F - 28.4 °F 64% 30.28 in 10.0 mi Calm Calm - N/A   Clear
7:55 PM 39.0 °F - 29.5 °F 69% 30.28 in 10.0 mi Calm Calm - N/A   Clear
8:15 PM 38.7 °F - 29.3 °F 69% 30.28 in 10.0 mi Calm Calm - N/A   Clear
8:35 PM 36.1 °F - 29.7 °F 77% 30.29 in 10.0 mi Calm Calm - N/A   Clear
8:55 PM 36.1 °F - 30.0 °F 78% 30.29 in 10.0 mi Calm Calm - N/A   Clear
9:15 PM 35.6 °F - 30.6 °F 82% 30.29 in 10.0 mi Calm Calm - N/A   Clear
9:35 PM 34.2 °F - 30.0 °F 85% 30.29 in 10.0 mi Calm Calm - N/A   Clear
9:55 PM 33.3 °F - 29.7 °F 87% 30.29 in 10.0 mi Calm Calm - N/A   Clear
10:15 PM 33.4 °F - 29.1 °F 84% 30.29 in 10.0 mi Calm Calm - N/A   Clear
10:35 PM 33.3 °F - 29.3 °F 85% 30.29 in 10.0 mi Calm Calm - N/A   Clear
10:55 PM 33.4 °F - 29.8 °F 87% 30.29 in 10.0 mi Calm Calm - N/A   Clear
11:15 PM 33.1 °F - 29.5 °F 87% 30.29 in 10.0 mi Calm Calm - N/A   Clear
11:35 PM 32.9 °F - 30.0 °F 89% 30.29 in 10.0 mi Calm Calm - N/A   Clear
11:55 PM 32.7 °F - 29.8 °F 89% 30.29 in 10.0 mi Calm Calm - N/A   Clear